TimeEDT,TemperatureF,Dew PointF,Humidity,Sea Level PressureIn,VisibilityMPH,Wind Direction,Wind SpeedMPH,Gust SpeedMPH,PrecipitationIn,Events,Conditions,WindDirDegrees,DateUTC
12:35 AM,50.0,44.6,82,30.07,10.0,Calm,Calm,-,N/A,,Clear,0,2012-10-22 04:35:00
12:55 AM,50.0,44.6,82,30.07,10.0,Calm,Calm,-,N/A,,Clear,0,2012-10-22 04:55:00
1:15 AM,46.4,42.8,87,30.07,7.0,Calm,Calm,-,N/A,,Clear,0,2012-10-22 05:15:00
1:35 AM,44.6,42.8,93,30.07,7.0,Calm,Calm,-,N/A,,Clear,0,2012-10-22 05:35:00
1:55 AM,44.6,42.8,93,30.07,7.0,Calm,Calm,-,N/A,,Clear,0,2012-10-22 05:55:00
2:35 AM,44.6,42.8,93,30.07,5.0,Calm,Calm,-,N/A,,Clear,0,2012-10-22 06:35:00
2:55 AM,44.6,42.8,93,30.06,5.0,Calm,Calm,-,N/A,,Clear,0,2012-10-22 06:55:00
3:55 AM,46.4,44.6,93,30.06,7.0,Calm,Calm,-,N/A,,Clear,0,2012-10-22 07:55:00
4:15 AM,46.4,44.6,93,30.06,7.0,Calm,Calm,-,N/A,,Clear,0,2012-10-22 08:15:00
4:55 AM,44.6,42.8,93,30.07,7.0,Calm,Calm,-,N/A,,Clear,0,2012-10-22 08:55:00
5:55 AM,42.8,41.0,93,30.07,4.0,Calm,Calm,-,N/A,,Clear,0,2012-10-22 09:55:00
6:15 AM,42.8,41.0,93,30.07,5.0,Calm,Calm,-,N/A,,Clear,0,2012-10-22 10:15:00
6:35 AM,42.8,41.0,93,30.07,5.0,Calm,Calm,-,N/A,,Clear,0,2012-10-22 10:35:00
6:55 AM,42.8,41.0,93,30.07,4.0,Calm,Calm,-,N/A,,Clear,0,2012-10-22 10:55:00
7:15 AM,42.8,41.0,93,30.07,4.0,Calm,Calm,-,N/A,,Clear,0,2012-10-22 11:15:00
7:55 AM,42.8,42.8,100,30.07,4.0,Calm,Calm,-,N/A,,Clear,0,2012-10-22 11:55:00
8:15 AM,44.6,42.8,93,30.07,4.0,Calm,Calm,-,N/A,,Clear,0,2012-10-22 12:15:00
8:35 AM,44.6,42.8,93,30.08,3.0,Calm,Calm,-,N/A,,Clear,0,2012-10-22 12:35:00
8:55 AM,46.4,44.6,93,30.08,5.0,Calm,Calm,-,N/A,,Clear,0,2012-10-22 12:55:00
10:35 AM,60.8,48.2,63,30.06,10.0,Calm,Calm,-,N/A,,Clear,0,2012-10-22 14:35:00
10:55 AM,60.8,50.0,68,30.07,10.0,South,4.6,-,N/A,,Clear,190,2012-10-22 14:55:00
11:15 AM,62.6,50.0,63,30.07,10.0,South,3.5,-,N/A,,Clear,180,2012-10-22 15:15:00
11:35 AM,66.2,50.0,56,30.07,10.0,South,5.8,-,N/A,,Clear,180,2012-10-22 15:35:00
11:55 AM,68.0,51.8,56,30.06,10.0,South,3.5,-,N/A,,Scattered Clouds,190,2012-10-22 15:55:00
12:35 PM,68.0,50.0,52,30.05,10.0,South,4.6,-,N/A,,Mostly Cloudy,190,2012-10-22 16:35:00
1:15 PM,69.8,50.0,49,30.05,10.0,South,6.9,-,N/A,,Mostly Cloudy,190,2012-10-22 17:15:00
1:35 PM,69.8,51.8,53,30.05,10.0,South,3.5,-,N/A,,Mostly Cloudy,190,2012-10-22 17:35:00
1:55 PM,69.8,51.8,53,30.04,10.0,SSW,4.6,-,N/A,,Mostly Cloudy,210,2012-10-22 17:55:00
2:15 PM,69.8,51.8,53,30.04,10.0,SSW,3.5,-,N/A,,Mostly Cloudy,200,2012-10-22 18:15:00
2:35 PM,69.8,51.8,53,30.03,10.0,South,4.6,-,N/A,,Mostly Cloudy,180,2012-10-22 18:35:00
2:55 PM,69.8,51.8,53,30.03,10.0,South,4.6,-,N/A,,Mostly Cloudy,180,2012-10-22 18:55:00
3:15 PM,71.6,53.6,53,30.03,10.0,SW,3.5,-,N/A,,Mostly Cloudy,220,2012-10-22 19:15:00
3:35 PM,71.6,53.6,53,30.03,10.0,SW,5.8,-,N/A,Rain,Rain,220,2012-10-22 19:35:00
4:15 PM,71.6,55.4,57,30.03,10.0,SSW,5.8,-,N/A,,Scattered Clouds,210,2012-10-22 20:15:00
4:35 PM,69.8,53.6,56,30.01,10.0,SSW,8.1,16.1,N/A,,Scattered Clouds,200,2012-10-22 20:35:00
4:55 PM,69.8,55.4,60,29.98,10.0,South,8.1,-,N/A,,Clear,190,2012-10-22 20:55:00
5:15 PM,68.0,55.4,64,29.97,10.0,South,8.1,-,N/A,,Scattered Clouds,190,2012-10-22 21:15:00
5:35 PM,68.0,55.4,64,29.99,10.0,West,3.5,-,N/A,,Light Drizzle,270,2012-10-22 21:35:00
6:15 PM,64.4,57.2,77,30.00,10.0,West,4.6,-,N/A,,Mostly Cloudy,260,2012-10-22 22:15:00
6:35 PM,64.4,57.2,77,29.99,10.0,Calm,Calm,-,N/A,,Mostly Cloudy,0,2012-10-22 22:35:00
7:15 PM,64.4,57.2,77,30.00,10.0,Calm,Calm,-,N/A,,Scattered Clouds,0,2012-10-22 23:15:00
7:35 PM,62.6,55.4,77,30.00,10.0,Calm,Calm,-,N/A,,Clear,0,2012-10-22 23:35:00
7:55 PM,60.8,55.4,82,30.00,10.0,Calm,Calm,-,N/A,,Clear,0,2012-10-22 23:55:00
8:35 PM,60.8,55.4,82,29.98,10.0,ESE,3.5,-,N/A,,Scattered Clouds,120,2012-10-23 00:35:00
9:35 PM,62.6,55.4,77,29.98,10.0,Calm,Calm,-,N/A,,Overcast,0,2012-10-23 01:35:00
9:55 PM,62.6,55.4,77,29.98,10.0,Calm,Calm,-,N/A,,Overcast,0,2012-10-23 01:55:00
10:15 PM,62.6,55.4,77,29.98,10.0,Calm,Calm,-,N/A,,Overcast,0,2012-10-23 02:15:00
10:55 PM,64.4,55.4,73,29.97,10.0,South,5.8,-,N/A,,Overcast,170,2012-10-23 02:55:00
11:35 PM,64.4,55.4,73,29.98,10.0,South,5.8,-,N/A,,Overcast,180,2012-10-23 03:35:00